Theta_e
310 310 310 310 310 310 310 310 310 310 310 310 311 311 310 311 311 311 311 311 311 312 312 312 313 313 313 313 313 313 313 313 313 313 313 314 314 314 314 315 315 314 314 314 315 315 315 316 317 317 317 318 318 320 321 320 320 320 323 323 323 324 323 322 321 321 320 319 318 318 318 318 318 319 318 318 318 318 318 317 317 318 318 318 318 318 318 318
310 310 310 310 310 310 310 310 310 310 310 310 310 310 310 311 311 311 311 311 312 312 312 313 313 313 313 313 313 312 313 313 313 314 315 315 314 314 314 314 314 314 314 314 314 315 316 317 317 317 317 319 320 320 321 321 320 321 323 323 323 323 323 321 320 320 320 319 318 317 318 318 317 318 318 318 317 317 317 317 317 317 318 318 318 318 319 319
309 309 309 309 309 310 310 310 310 310 310 310 310 310 310 310 311 311 311 311 311 312 312 312 312 312 312 312 312 312 313 313 315 316 316 314 314 314 314 314 314 314 314 314 315 316 317 317 317 318 317 319 320 321 322 322 321 321 322 323 322 322 321 320 320 320 320 319 318 318 318 317 317 317 317 318 317 317 317 317 317 317 318 318 317 318 318 319
309 309 309 309 310 309 310 310 310 310 310 310 310 310 310 310 311 311 311 311 311 311 311 311 311 311 312 311 312 312 313 315 317 317 315 314 315 315 315 314 313 314 314 314 315 315 317 316 317 317 317 318 319 320 321 321 321 321 321 321 321 321 320 319 319 319 319 319 318 318 317 317 317 317 317 318 318 317 317 317 317 317 317 317 316 317 317 318
309 309 309 309 309 309 310 310 310 310 310 310 310 310 310 310 311 311 311 311 311 311 311 311 311 311 311 312 312 312 314 317 318 316 314 314 315 315 315 315 314 314 314 314 314 315 316 316 316 317 317 317 318 319 320 320 321 320 320 321 321 320 319 319 318 319 319 319 318 318 317 317 317 317 318 318 317 317 317 317 317 317 317 317 317 317 317 317
309 309 309 309 309 309 309 310 310 310 310 310 310 310 310 310 311 311 311 311 311 311 311 311 312 312 312 312 313 312 313 316 317 316 315 315 315 315 315 315 314 314 314 314 314 315 315 315 316 316 317 317 317 317 318 319 320 320 320 320 320 319 318 318 318 318 319 318 318 318 318 317 316 317 317 317 317 317 317 318 317 317 317 318 318 317 317 317
309 309 309 309 309 310 309 310 310 310 310 310 310 311 311 311 311 311 312 312 312 312 312 313 313 313 313 313 313 313 314 315 316 317 316 315 315 315 315 315 314 314 314 314 315 315 315 316 316 316 317 316 317 317 317 318 318 319 320 319 319 318 317 317 317 318 318 318 318 318 318 317 316 316 316 316 317 317 317 317 317 317 317 317 318 318 317 317
309 309 309 310 310 310 311 310 311 311 311 311 312 312 312 312 312 313 313 313 313 313 313 314 314 314 314 315 315 315 316 316 316 316 316 316 315 315 314 314 314 314 315 314 315 316 316 316 316 316 316 316 316 316 316 317 317 318 319 319 319 318 318 318 318 318 318 318 317 317 318 317 317 317 316 316 317 316 316 316 316 316 317 317 317 317 317 317
310 311 311 311 311 311 312 312 313 313 313 313 313 313 314 314 314 314 314 315 315 315 316 316 317 317 318 318 317 317 317 317 317 317 316 315 315 315 315 315 315 315 315 315 315 316 316 316 317 316 316 316 316 316 316 316 317 317 317 317 317 317 317 317 317 316 316 316 316 317 317 317 317 316 316 316 316 316 316 317 317 317 317 317 317 316 317 316
313 313 313 314 314 315 315 315 316 316 317 317 317 317 317 318 318 318 319 319 319 320 320 320 321 321 321 321 319 318 319 319 318 317 316 315 315 315 314 315 315 315 315 315 315 316 316 316 317 317 317 317 316 316 316 316 316 317 316 316 316 315 316 316 315 315 315 315 315 317 317 317 316 316 316 316 316 316 316 317 317 317 317 316 316 316 316 316
317 317 317 317 318 318 318 319 319 319 320 320 320 320 320 320 320 321 321 321 321 321 321 320 320 320 319 318 318 320 321 320 319 318 317 317 317 317 316 315 314 315 315 315 316 316 316 316 316 317 317 316 315 316 316 316 316 316 315 315 315 315 315 315 315 315 315 315 316 316 316 316 316 316 316 316 317 317 316 316 317 317 316 316 316 316 316 316
318 318 318 319 319 319 319 319 319 319 319 319 319 319 319 318 318 318 318 318 317 317 316 316 315 315 315 314 315 319 320 320 320 320 319 320 320 321 319 316 314 314 315 316 317 317 316 316 316 316 316 315 315 316 315 315 315 315 314 314 314 314 315 315 315 316 315 316 316 316 316 316 315 316 316 316 317 317 316 316 317 317 316 316 316 315 315 315
316 316 317 317 317 317 317 317 316 316 316 316 315 315 315 315 315 315 315 314 314 314 314 314 313 313 312 313 315 316 316 317 318 318 319 319 320 320 318 316 313 313 314 316 317 317 317 316 315 315 316 316 316 316 315 315 315 314 314 314 314 315 315 316 316 317 316 316 316 315 315 316 315 316 316 316 317 316 317 316 316 316 316 316 316 315 315 315
314 314 314 315 315 315 314 314 314 314 314 314 314 314 314 314 314 314 314 314 314 314 314 314 314 312 311 313 315 315 315 315 315 316 316 316 317 317 317 315 313 313 314 315 316 316 316 316 315 314 315 315 315 315 315 315 315 314 315 315 316 316 316 317 317 317 316 315 315 315 315 315 315 316 316 316 317 316 316 316 316 316 316 316 315 316 315 315
313 313 313 313 313 313 313 313 313 313 313 313 313 313 313 314 314 314 314 315 315 315 315 314 314 313 313 314 315 315 315 315 315 315 315 316 316 316 316 315 314 313 313 314 315 315 315 315 314 314 315 315 315 315 314 315 315 315 315 316 317 317 316 318 318 317 316 315 314 315 316 315 315 316 317 317 317 316 316 315 316 316 315 316 316 316 316 316
313 313 313 313 312 312 312 313 313 313 313 312 313 313 314 315 315 316 317 317 317 317 316 316 314 313 314 316 316 316 316 315 316 316 315 316 315 315 315 315 313 312 313 313 313 314 314 314 314 314 315 315 315 315 315 316 316 316 316 316 318 318 317 319 320 317 316 315 314 314 316 316 316 316 316 316 316 316 315 315 315 315 315 315 316 316 315 316
313 313 313 313 313 313 313 312 312 313 313 313 314 316 317 318 319 320 319 319 319 318 316 316 316 313 313 316 316 316 316 315 315 315 314 314 314 314 314 314 313 312 312 312 312 313 313 313 314 314 314 314 314 315 317 318 318 318 318 318 319 319 318 318 320 318 316 316 315 314 314 314 315 315 315 316 316 316 315 315 315 315 315 316 315 315 316 316
314 313 313 313 313 313 313 313 313 314 315 317 318 320 321 321 321 321 320 320 319 317 315 314 314 315 317 317 316 316 316 314 314 315 315 315 314 314 314 314 313 313 312 312 312 313 313 313 313 314 315 314 314 314 317 318 318 319 319 319 319 319 318 318 318 318 317 317 317 316 316 316 316 316 316 316 316 316 315 315 315 315 316 315 315 316 316 316
313 313 313 312 312 312 313 313 314 315 318 321 322 322 322 322 322 321 320 318 317 318 318 315 315 318 319 318 317 317 317 316 316 317 317 317 315 314 314 313 313 313 313 314 314 313 313 314 315 316 316 315 315 314 316 317 317 318 319 318 318 317 318 318 318 318 318 318 318 318 317 317 317 316 316 316 316 315 315 315 315 315 315 315 316 316 316 315
312 312 312 312 313 313 314 315 316 318 321 323 323 323 323 323 323 322 319 317 317 319 320 318 317 318 320 320 320 320 319 318 318 318 317 316 316 315 314 313 313 313 314 316 316 313 313 315 317 317 316 315 316 316 316 317 317 318 318 318 318 317 317 317 318 318 318 318 318 318 318 317 316 316 315 315 315 314 314 315 315 315 315 316 317 317 316 315
312 312 312 313 314 314 315 317 318 321 323 324 323 322 322 323 322 321 320 319 320 321 321 321 320 321 321 322 322 321 320 318 317 317 316 315 315 314 314 313 314 314 315 316 316 314 314 317 317 316 316 316 317 318 318 318 318 318 318 318 318 318 317 317 318 318 318 318 317 317 317 316 316 315 315 315 315 315 315 314 314 315 316 316 316 316 314 313
314 314 314 314 315 316 317 319 320 322 323 324 323 322 322 322 322 321 320 320 321 322 322 322 322 322 321 321 321 321 320 318 317 316 316 315 315 314 315 314 315 316 316 316 317 317 317 318 317 316 317 317 317 318 318 318 318 318 318 318 318 318 318 317 318 318 317 316 316 316 316 316 315 315 315 315 315 315 316 316 315 316 316 315 315 314 312 311
316 316 316 317 318 318 319 320 321 323 323 324 323 322 323 323 322 321 319 317 319 322 321 322 322 322 322 322 320 320 318 318 319 318 316 315 314 315 316 315 315 317 317 317 318 319 320 318 317 317 317 317 317 318 318 318 318 319 318 318 318 318 319 319 319 318 316 315 316 316 315 315 315 315 316 316 316 316 317 316 316 316 314 313 312 311 310 309
318 318 319 319 319 320 320 321 322 323 323 323 323 323 323 323 322 320 318 317 319 321 321 321 321 321 321 320 319 318 317 318 319 318 317 316 314 316 316 315 316 317 318 317 317 319 319 319 317 317 318 318 318 318 319 318 318 319 320 320 319 319 319 318 317 316 316 316 316 316 318 318 318 318 317 317 317 317 316 315 314 314 313 311 310 309 308 308
319 320 320 320 321 321 321 322 323 323 323 324 324 323 323 322 321 319 317 319 321 321 321 321 319 319 318 317 316 316 316 317 317 316 315 315 315 315 316 317 317 317 318 318 318 318 318 318 318 318 318 319 319 318 319 320 319 319 321 321 318 317 319 319 319 318 317 318 317 317 320 321 320 320 320 319 318 316 314 313 313 312 311 310 309 308 307 306
320 320 321 322 322 322 322 323 324 324 324 324 324 323 323 322 320 318 317 320 323 322 320 319 318 316 314 314 314 314 316 316 315 314 315 315 315 314 315 316 316 317 317 316 318 318 317 316 318 320 319 320 321 319 319 320 318 318 320 320 318 318 319 320 319 319 318 318 316 316 319 319 319 319 319 319 318 314 312 312 311 310 310 308 307 306 306 305
321 323 323 323 323 322 323 324 324 325 324 325 325 324 323 322 320 318 319 325 327 323 319 316 316 314 312 312 312 314 317 316 313 313 313 314 314 313 314 315 315 316 314 315 319 319 317 317 319 319 318 319 320 318 319 319 318 320 319 318 318 317 318 318 317 318 318 316 316 316 317 318 318 318 318 319 317 313 312 311 310 309 309 307 306 305 305 304
321 325 325 325 324 323 323 324 325 324 325 325 325 324 323 322 320 318 322 329 328 319 316 313 313 313 311 311 312 312 313 313 313 313 312 313 313 312 313 314 314 315 313 316 320 318 316 318 319 318 318 319 318 318 319 318 319 320 318 316 316 315 315 315 316 317 317 317 318 319 318 320 321 319 319 319 316 313 312 311 310 309 307 306 306 305 304 303
321 324 325 325 325 324 323 324 324 324 325 325 324 324 323 322 320 318 323 329 325 317 315 312 312 312 311 311 312 310 310 311 313 312 310 312 312 311 312 312 313 314 313 314 318 317 315 315 316 317 319 318 316 318 320 320 318 317 316 316 316 316 317 317 317 317 316 317 319 320 319 320 323 322 321 320 315 313 312 310 309 308 306 305 304 304 303 303
322 323 325 325 324 324 324 324 324 324 324 324 324 324 322 321 321 323 327 327 322 318 314 312 313 313 311 312 312 311 311 311 311 311 311 312 312 311 311 311 310 313 315 315 317 316 313 311 312 314 316 316 316 316 316 319 318 314 315 317 317 318 318 318 318 316 317 321 321 320 319 319 324 325 319 317 315 313 311 310 308 307 305 304 303 302 302 302
323 323 324 324 324 324 324 324 323 323 323 323 324 322 321 322 323 327 328 323 319 319 315 314 314 313 312 314 315 313 312 312 311 311 312 311 312 311 311 312 312 313 316 316 318 317 314 313 314 314 313 313 316 316 314 314 313 313 314 314 316 320 318 316 318 316 319 324 321 320 320 319 324 325 317 315 314 313 312 310 308 305 304 303 302 301 301 301
324 324 323 323 323 323 323 322 321 321 321 323 323 321 322 324 324 326 325 321 323 322 317 317 316 313 315 317 319 317 314 314 312 312 313 313 313 313 313 315 316 318 320 320 321 320 319 317 315 315 313 312 315 316 315 314 312 313 314 313 317 322 321 320 321 321 322 322 318 319 321 321 322 322 317 314 312 311 311 308 306 305 304 303 301 300 300 301
321 322 322 322 321 321 320 319 320 321 321 322 322 321 322 323 323 325 324 324 326 322 317 318 317 316 318 319 321 318 316 316 312 311 314 315 315 316 316 317 318 320 322 322 322 321 322 321 317 317 315 313 315 316 318 318 314 313 315 317 319 322 323 324 324 324 324 322 320 320 320 320 321 319 316 312 308 307 307 306 305 304 303 302 301 300 299 300
318 318 319 318 318 318 317 317 318 319 321 321 321 321 322 322 322 324 324 325 324 319 318 319 317 317 318 319 320 319 319 319 313 311 314 315 316 318 319 318 317 318 319 320 321 321 322 322 320 320 317 314 315 316 320 322 316 315 318 319 320 321 322 322 323 325 325 324 323 320 320 322 322 317 312 308 306 306 305 304 304 303 302 301 300 300 300 300
318 317 317 316 316 315 315 315 316 318 320 320 320 322 322 321 322 323 324 324 322 319 318 318 318 320 321 321 321 319 320 320 315 313 316 316 317 319 320 319 316 316 318 320 321 321 321 321 320 318 315 314 315 316 319 320 319 317 316 318 320 322 322 321 322 324 323 322 321 320 321 322 318 313 308 306 306 304 304 303 303 302 301 301 300 299 299 299
319 318 317 316 315 314 314 315 316 318 319 319 320 322 321 320 322 323 322 321 321 321 320 320 322 323 322 322 322 321 320 319 317 317 318 318 319 319 320 319 316 315 317 319 321 321 320 321 321 317 313 314 315 316 316 317 318 315 315 319 319 319 321 320 321 322 320 320 319 318 320 319 316 313 308 306 305 304 304 303 302 302 301 300 299 299 298 298
317 317 316 315 315 314 315 316 317 319 319 319 321 321 320 319 321 321 320 318 318 321 322 322 323 322 322 323 323 323 321 318 319 319 319 319 319 319 318 318 317 316 316 317 319 321 320 320 320 319 318 315 313 314 314 313 315 316 318 319 316 317 319 318 319 320 320 319 318 318 318 317 318 317 309 306 306 304 303 302 301 301 300 299 299 298 298 298
314 314 314 315 315 315 316 316 317 318 318 319 320 321 320 320 319 318 319 317 317 321 322 323 322 321 322 322 322 323 321 319 319 319 318 318 319 318 317 318 318 315 314 316 318 320 320 319 319 321 322 317 311 313 315 312 312 314 315 314 314 318 319 317 318 319 319 318 318 319 318 317 318 317 311 307 305 303 303 302 301 300 299 298 297 298 298 298
311 310 311 314 315 315 315 315 317 317 318 320 321 320 319 319 319 318 318 318 318 320 321 321 321 321 321 321 320 321 319 318 319 319 318 318 318 317 315 317 318 314 312 315 318 318 318 318 320 321 320 318 314 315 318 317 313 311 312 312 314 317 317 317 318 318 318 317 317 318 317 318 317 314 311 308 305 303 303 302 301 300 299 298 297 298 298 298
307 307 308 311 312 312 313 314 316 317 318 320 320 319 319 319 319 318 318 318 318 319 320 320 321 321 320 319 319 319 318 318 319 318 318 317 316 317 315 316 317 315 312 313 315 317 317 318 319 318 317 318 317 317 318 319 316 314 313 314 314 315 315 316 316 317 318 317 318 318 317 318 315 309 309 308 305 305 304 303 302 301 300 299 299 299 298 297
305 306 309 310 309 309 311 313 316 317 318 319 318 318 318 318 317 317 317 317 317 318 318 318 319 320 319 319 318 318 318 318 318 318 318 316 316 317 315 313 314 315 314 315 316 315 316 317 317 316 316 316 317 318 318 318 318 318 316 315 315 315 315 316 315 316 317 316 317 317 317 318 314 307 307 307 305 306 304 303 302 301 300 300 299 299 298 297
305 307 309 310 308 308 310 313 315 316 316 317 317 317 317 317 317 317 316 316 316 316 316 316 317 318 318 318 317 317 317 317 317 318 318 317 316 317 314 311 312 313 314 316 316 313 311 313 315 316 316 315 315 316 316 317 319 319 317 316 317 316 315 316 316 316 316 316 316 316 317 318 311 306 306 306 304 305 304 303 302 301 301 300 299 298 297 297
306 308 310 309 308 308 310 312 314 314 315 315 315 315 316 316 316 316 316 316 316 316 316 316 316 316 317 317 316 316 316 316 317 317 317 317 315 313 311 311 312 312 313 316 317 313 311 313 314 315 314 314 314 314 315 315 317 316 315 315 316 315 315 314 313 313 313 314 315 315 317 317 310 305 305 305 304 305 304 303 303 301 300 299 298 298 296 295
305 308 309 309 308 310 311 311 311 312 313 313 314 314 315 315 316 315 315 315 315 315 315 316 316 315 316 316 316 316 315 316 316 316 317 317 314 310 309 311 311 311 312 314 314 314 314 314 313 314 315 315 315 314 315 315 315 315 314 314 314 314 313 312 312 312 312 313 314 314 315 316 311 304 304 305 305 305 304 303 303 302 300 299 298 297 296 294
305 307 309 309 308 310 311 311 310 311 312 312 313 313 313 314 315 315 315 314 314 314 314 315 314 314 315 315 316 316 315 316 316 316 316 316 313 309 308 310 310 310 309 309 310 312 313 313 312 313 314 314 313 314 314 314 314 314 314 314 314 313 313 313 313 313 312 313 313 313 313 315 312 306 305 306 305 305 304 303 302 301 300 299 298 297 295 294
306 306 308 308 309 310 310 311 311 311 312 312 312 312 312 313 313 314 314 314 313 313 313 313 313 313 314 314 314 314 314 315 315 315 314 314 313 310 307 308 308 308 307 307 308 310 311 311 311 312 312 312 312 312 312 311 311 311 312 312 312 312 313 313 312 312 312 311 311 311 311 311 311 309 309 308 307 306 304 302 300 300 300 298 297 296 295 294
304 304 307 308 309 310 310 310 310 311 312 312 312 312 312 312 312 313 313 313 313 312 312 312 313 313 313 313 313 313 313 313 314 314 313 313 313 309 307 306 306 306 306 307 307 309 309 309 309 310 310 310 310 310 310 309 309 309 309 309 309 310 310 311 311 310 310 311 310 310 309 309 309 309 309 309 308 307 305 302 300 299 298 297 296 296 295 294
301 302 305 308 308 309 310 310 310 310 311 312 311 311 311 312 311 312 312 312 311 312 312 311 312 312 312 312 312 312 311 311 312 313 312 312 312 309 308 307 305 305 306 306 306 307 308 307 307 306 306 307 307 307 307 307 307 307 307 308 308 308 309 309 308 308 309 310 309 308 308 308 307 308 308 306 305 306 304 301 299 298 297 296 296 295 295 294
300 300 302 305 306 307 309 310 310 310 310 311 311 311 311 311 310 311 311 311 311 311 311 310 311 311 311 311 311 312 311 311 312 312 311 310 309 307 307 307 305 304 305 305 305 305 306 306 305 305 305 305 305 306 306 306 306 306 306 306 306 306 307 307 307 307 307 307 306 306 307 306 306 306 305 302 300 301 300 298 297 296 296 295 295 294 294 294
300 300 300 303 304 304 306 308 310 310 310 310 310 310 309 309 310 310 311 310 310 310 310 310 310 309 308 308 309 310 310 308 309 309 308 308 308 306 306 306 305 303 303 304 305 305 305 305 305 305 305 305 305 305 305 306 306 305 305 305 305 304 305 305 305 305 305 305 305 305 305 305 304 302 300 298 298 298 297 296 296 295 295 294 293 293 293 293
299 299 299 301 303 303 304 306 308 309 309 309 309 308 308 309 309 309 309 309 309 309 309 309 309 307 306 306 307 307 306 305 305 306 305 305 305 305 305 305 305 304 304 304 305 305 305 304 304 304 304 303 303 303 304 304 304 303 303 302 303 303 303 303 303 304 304 304 304 303 304 304 302 298 297 297 296 295 295 295 295 294 293 293 293 293 293 292
297 297 297 298 301 303 303 304 307 307 307 307 307 307 307 308 307 307 307 307 306 306 306 307 307 306 306 306 305 304 304 302 302 302 302 301 302 302 302 302 302 303 304 304 304 304 304 303 303 303 303 302 302 302 301 301 301 301 301 301 301 301 301 301 302 302 303 303 302 303 303 302 300 298 297 296 294 293 294 294 293 293 293 293 292 292 292 292
Wind_Speed
1 1 1 1 1 1 1 1 1 2 2 2 2 2 2 2 2 3 3 3 3 4 5 6 6 7 8 10 11 12 13 14 16 17 18 14 7 6 3 4 5 5 5 5 6 6 5 4 3 3 3 5 4 4 6 5 4 2 1 3 4 5 5 4 5 5 4 5 6 7 8 5 5 5 4 5 9 13 17 21 20 17 19 23 25 22 22 21
3 2 2 2 2 2 2 3 3 3 3 3 3 3 4 4 4 4 5 5 5 6 7 7 8 8 10 10 11 13 14 15 18 19 16 8 1 1 4 5 5 5 5 4 4 2 3 3 4 5 4 6 6 5 6 5 5 5 2 3 4 4 6 8 9 8 6 6 9 12 13 10 9 10 8 5 8 11 13 19 21 19 19 21 21 21 24 22
5 4 4 4 4 4 4 4 4 4 4 4 5 5 5 5 6 6 6 7 7 8 8 9 9 10 11 11 12 13 14 18 18 13 5 4 6 3 6 7 6 6 6 3 3 2 4 5 5 6 7 7 7 6 5 5 6 8 6 3 5 6 8 11 13 12 11 11 10 10 11 12 13 15 11 8 10 9 11 16 18 18 18 17 18 17 18 19
6 6 5 5 5 5 5 6 6 6 6 6 6 6 7 7 7 7 8 8 8 9 9 10 11 11 12 12 13 12 16 17 10 3 3 7 4 4 10 12 7 5 5 4 4 5 6 7 5 6 8 9 10 8 6 7 6 7 7 4 6 7 8 12 17 18 14 10 9 11 11 12 15 15 11 10 8 6 12 19 18 20 22 21 23 21 18 17
7 7 6 6 7 7 7 7 7 7 7 8 8 8 8 8 9 9 9 9 10 10 11 11 12 12 13 13 13 12 13 9 1 2 3 5 2 8 13 14 10 6 5 5 5 6 8 8 6 7 8 7 10 8 7 13 11 5 7 10 11 11 9 13 19 16 11 9 11 12 10 12 14 13 13 10 8 9 16 22 24 27 28 27 27 25 24 23
8 8 8 8 8 8 9 9 9 9 9 9 9 10 10 10 10 10 10 11 11 12 12 13 13 14 14 14 14 13 8 4 3 4 5 7 10 15 15 14 11 7 5 5 5 6 7 7 7 9 9 7 8 8 9 14 14 6 7 12 14 14 12 16 19 15 11 9 12 13 12 16 16 13 17 15 16 20 23 25 28 31 31 30 28 25 25 25
9 9 9 9 9 10 10 10 10 10 10 11 11 11 11 11 11 11 12 12 13 13 14 15 15 15 16 15 15 13 8 11 14 11 12 15 17 17 14 11 8 5 6 6 5 5 6 7 9 10 8 7 8 10 11 14 12 8 6 9 14 18 18 21 21 17 14 12 15 17 15 17 15 13 17 20 24 29 28 29 31 32 32 31 28 25 25 24
10 10 10 10 11 11 11 11 11 12 12 12 12 13 13 13 13 14 14 14 15 15 16 16 17 17 16 16 14 11 10 16 18 15 16 17 16 14 10 7 6 5 7 7 6 6 7 8 10 11 8 7 9 10 11 10 9 9 7 9 14 17 18 19 19 19 17 17 19 16 15 18 19 17 19 24 30 32 30 30 30 29 29 28 27 24 23 23
11 11 11 12 12 12 12 13 13 13 14 14 14 15 15 15 15 16 16 16 17 16 17 17 18 18 17 16 12 9 13 17 17 16 16 13 10 9 8 8 7 7 8 8 7 7 9 9 10 8 6 9 11 10 11 8 5 6 7 9 11 12 16 19 21 22 21 21 19 11 13 19 20 16 16 24 29 28 25 22 21 22 23 22 22 22 22 23
12 12 12 13 13 13 14 14 14 15 15 15 16 16 16 17 16 17 17 17 17 17 18 17 18 17 16 16 9 7 13 13 12 13 12 11 11 11 11 11 10 9 10 10 9 9 10 10 10 10 10 10 10 10 11 9 7 8 10 12 15 15 20 23 23 27 25 23 22 13 10 18 19 10 10 22 25 22 22 20 19 19 20 20 20 22 23 23
14 14 14 14 14 14 15 15 15 16 16 16 16 17 17 17 17 17 17 17 17 17 17 17 18 17 17 15 9 10 13 11 10 12 13 14 16 15 14 14 12 11 11 10 9 10 11 11 11 10 8 5 6 11 11 8 8 9 10 12 16 17 22 24 22 27 22 16 20 15 9 16 16 8 14 25 23 20 23 22 21 20 21 22 23 24 24 25
16 15 15 15 15 15 15 15 16 16 17 17 17 17 17 17 17 17 17 17 16 16 16 16 16 16 15 15 17 18 17 15 15 17 18 19 20 19 16 15 14 11 11 11 10 12 13 13 12 9 7 6 6 8 6 6 7 7 6 7 13 13 16 21 20 25 21 10 11 8 3 10 8 9 20 26 20 19 22 20 20 20 21 24 25 26 27 27
15 15 15 15 15 15 15 16 16 16 16 16 16 16 16 16 15 15 15 14 14 14 14 14 14 15 13 13 18 19 16 16 17 18 19 19 19 18 16 14 12 12 13 14 13 14 14 15 14 12 12 11 8 7 6 9 9 6 5 5 9 9 8 14 17 19 15 6 12 10 1 5 6 11 17 18 13 13 16 16 19 22 25 28 28 29 29 29
13 13 13 14 14 14 14 14 14 14 14 14 14 14 14 13 13 13 13 12 12 12 12 13 13 13 11 13 17 16 14 14 14 16 17 18 18 17 14 12 11 12 13 15 16 15 15 14 13 13 13 13 12 11 9 9 7 6 7 5 5 5 4 11 11 6 3 6 14 9 2 5 6 13 15 13 10 11 13 17 24 28 31 31 29 28 29 28
12 12 12 12 12 12 12 11 12 12 12 12 13 13 12 12 12 12 12 11 11 12 12 12 12 10 9 14 16 13 12 11 12 13 12 14 16 12 11 9 9 11 12 15 17 16 15 13 11 9 10 12 11 9 6 4 4 4 5 4 4 4 4 9 10 5 6 3 11 8 2 6 7 11 13 14 16 20 20 23 29 32 32 31 29 26 25 24
11 11 11 11 10 10 10 10 10 10 11 11 11 12 12 12 12 11 12 11 11 11 10 10 10 8 7 10 11 8 7 8 9 10 8 11 11 8 9 8 6 9 11 14 15 15 14 10 8 7 8 7 5 4 4 3 4 4 4 5 5 6 5 5 5 5 9 4 6 7 3 5 5 8 16 19 22 25 25 28 32 33 31 30 27 24 23 22
11 10 10 10 9 9 9 8 9 9 9 10 10 11 11 11 11 11 11 11 11 10 9 8 6 6 8 11 10 7 6 6 6 6 7 7 7 7 8 6 4 6 8 10 11 11 10 7 6 5 6 5 3 3 3 4 4 4 4 5 6 6 6 3 4 1 7 5 5 7 7 8 7 10 20 23 23 24 24 28 31 30 27 26 26 25 22 15
10 10 9 9 8 8 8 7 7 8 8 9 10 10 10 11 11 12 12 11 9 6 6 7 4 1 7 10 9 7 6 5 4 5 7 6 6 6 4 3 4 4 4 5 7 8 8 8 7 3 4 5 4 3 4 5 6 5 5 5 6 6 7 6 5 6 4 4 6 7 9 9 7 8 15 21 24 24 23 28 31 27 26 29 27 17 11 9
10 9 8 8 8 7 7 7 7 7 7 7 8 9 9 9 10 10 10 8 7 4 3 6 9 3 5 7 7 8 10 9 9 11 12 10 8 7 6 6 6 7 6 4 6 11 10 5 5 3 3 5 6 7 8 9 9 9 9 7 8 7 6 8 8 8 10 10 9 9 9 8 7 7 12 23 28 26 23 25 27 27 28 24 12 10 15 19
9 8 8 8 7 7 7 6 6 6 6 6 7 7 6 7 6 4 3 7 11 10 10 8 11 13 14 13 9 10 13 11 11 12 10 7 6 7 9 8 8 9 6 4 5 11 12 4 4 6 6 8 9 10 11 10 9 9 9 8 8 7 7 8 9 10 9 9 7 6 8 8 9 9 14 25 26 21 18 19 24 28 20 7 13 14 17 23
8 8 7 7 7 7 7 6 6 6 5 5 4 4 4 5 3 2 6 10 14 14 17 18 17 19 21 18 14 16 15 9 9 11 8 5 6 7 10 10 7 5 8 9 4 5 8 4 5 8 9 11 11 10 11 10 8 8 7 8 8 7 8 8 11 12 6 4 4 5 7 7 9 13 18 22 17 12 15 18 20 15 5 15 18 19 23 25
8 8 7 7 7 7 7 6 6 5 5 4 2 3 3 4 4 6 8 10 14 16 19 23 23 24 25 21 19 22 17 7 8 10 8 8 10 7 10 11 6 4 7 9 5 3 4 5 9 12 11 11 11 9 10 11 8 7 6 6 6 6 7 8 10 9 2 0 3 6 7 7 11 16 17 17 12 13 22 19 5 10 20 21 22 25 25 24
9 8 8 8 8 8 8 7 7 6 5 4 2 2 3 4 4 7 6 6 13 16 16 20 23 24 23 18 16 19 15 10 10 12 10 9 13 10 9 9 6 5 5 6 6 3 4 5 9 13 12 10 10 9 9 9 7 5 5 5 6 5 6 6 4 5 5 3 7 9 7 6 11 15 13 15 14 15 14 3 19 24 25 26 26 25 24 25
10 9 9 9 10 10 10 8 8 7 6 4 3 2 3 4 4 7 6 6 8 10 14 19 19 18 16 13 13 13 11 10 9 9 12 12 12 9 8 9 7 5 6 7 9 8 7 7 5 6 8 8 8 8 7 7 5 5 6 6 6 6 7 6 4 7 6 6 6 6 5 5 8 9 7 8 10 7 7 23 27 25 26 27 27 26 25 24
12 11 10 10 10 11 10 9 7 6 5 4 3 2 2 3 3 6 5 5 5 6 11 14 12 11 11 12 12 10 7 7 5 8 14 13 10 6 5 9 7 5 7 8 9 9 7 9 7 4 5 6 6 6 6 5 4 5 5 4 5 5 5 5 7 7 5 5 3 3 3 3 5 6 6 7 5 4 15 21 20 22 25 25 25 25 24 24
13 11 11 11 12 12 10 8 6 3 3 4 3 2 2 2 3 5 4 3 4 3 4 5 5 5 5 5 6 5 3 4 6 8 11 12 10 6 1 4 5 3 4 3 4 4 2 2 1 2 2 5 4 6 5 4 4 4 3 4 5 5 6 6 6 4 1 3 3 2 2 4 5 5 9 11 2 8 13 13 14 20 22 22 24 23 23 24
14 13 13 12 13 12 9 7 6 5 5 5 4 3 3 2 1 3 2 3 4 2 4 3 3 3 3 3 5 5 1 3 6 6 9 10 9 6 3 2 3 2 1 2 1 1 2 3 4 3 1 2 3 5 4 3 4 3 2 3 5 4 4 3 2 2 4 4 5 5 4 5 5 5 13 12 5 11 9 9 11 16 20 21 22 22 23 24
17 17 17 15 13 12 10 10 10 9 8 7 6 7 5 2 1 1 0 3 2 3 4 2 3 2 3 5 6 3 1 4 4 3 7 10 8 4 4 3 2 1 3 3 1 0 0 2 3 3 3 3 4 4 2 2 2 2 2 1 2 1 2 3 4 4 4 3 4 5 6 3 4 5 11 7 8 9 7 8 8 12 17 18 19 20 20 21
19 19 19 18 16 14 13 13 13 13 12 10 9 8 5 2 1 0 1 2 1 2 2 2 3 3 5 6 5 3 2 2 0 1 5 8 9 4 2 3 4 2 4 6 5 2 1 3 2 3 3 4 4 2 1 1 2 2 2 2 2 4 4 4 5 3 3 3 4 6 7 3 4 6 5 2 8 6 5 7 7 11 15 15 17 18 18 20
22 22 23 23 20 18 17 17 15 13 12 11 9 5 3 2 1 1 3 2 1 3 3 3 2 4 6 4 4 6 4 2 3 5 4 3 7 5 3 3 3 3 3 4 5 4 2 4 2 2 6 5 3 2 3 2 1 1 2 3 4 5 4 3 4 2 1 2 4 7 9 7 3 4 2 5 5 9 8 6 6 10 13 15 16 17 19 21
24 25 26 26 23 19 16 13 10 8 7 7 6 4 4 2 1 3 4 1 1 1 2 2 2 3 5 2 2 5 3 3 6 6 3 2 4 5 3 2 1 1 2 2 5 5 3 3 0 4 9 5 3 1 1 2 1 1 1 2 4 4 1 1 0 1 1 3 3 5 2 7 3 3 2 6 5 8 8 8 8 8 11 14 15 16 19 21
20 19 19 19 17 14 11 7 5 5 6 5 5 5 3 1 2 4 2 1 1 1 0 1 1 2 3 0 1 2 1 3 5 3 1 1 3 4 4 3 2 0 2 1 1 2 3 6 5 3 5 6 4 1 0 1 1 2 2 1 1 2 0 1 0 1 2 4 2 5 7 1 4 6 4 5 7 7 8 11 12 12 13 14 14 16 18 21
10 9 9 9 9 9 8 6 5 6 6 6 6 4 2 1 3 3 2 2 1 1 2 2 1 1 1 1 0 1 1 1 3 1 1 1 1 3 5 5 2 1 2 1 1 2 1 3 6 2 1 6 6 3 2 1 2 4 3 3 3 1 1 2 2 2 3 3 2 4 7 1 4 5 3 6 8 9 15 18 17 17 17 16 16 16 17 20
10 10 9 8 7 7 6 6 7 7 8 9 8 3 2 4 3 1 4 4 1 1 1 2 1 0 0 1 1 2 1 1 3 2 1 1 0 2 4 5 4 1 1 0 1 3 3 3 5 4 1 8 8 4 3 3 3 4 1 2 3 2 2 3 2 3 3 3 5 5 4 2 4 1 2 9 11 14 19 20 20 20 18 17 17 16 17 19
13 13 12 12 9 8 7 9 11 11 11 11 7 3 5 5 2 2 4 2 1 2 1 2 2 2 2 3 3 4 3 1 3 3 2 3 3 3 3 4 6 3 2 1 1 2 3 5 4 3 3 10 8 4 4 5 1 2 2 3 1 3 4 2 3 3 1 3 5 4 2 3 1 4 6 9 11 14 16 17 18 18 16 16 16 15 16 17
15 15 16 15 13 12 12 14 15 15 13 10 5 5 6 4 2 2 1 1 2 4 3 1 1 2 3 3 4 5 3 1 3 2 2 5 4 5 4 2 5 7 5 3 2 1 2 3 2 5 2 5 5 4 4 2 1 1 2 1 3 2 4 1 3 2 1 2 5 3 3 4 1 3 5 8 8 9 9 11 14 15 14 15 14 14 14 14
16 17 18 18 17 16 17 17 16 17 16 11 5 6 5 4 6 5 1 3 2 3 4 1 2 3 3 2 3 3 2 1 3 2 2 3 3 5 5 4 6 10 9 6 2 2 2 3 1 4 3 5 2 5 3 1 3 3 1 2 2 2 3 2 1 1 1 4 5 4 6 6 3 2 3 7 7 7 5 6 10 12 12 13 12 12 12 12
16 17 19 21 20 18 18 18 17 18 15 8 7 9 4 4 8 7 5 5 3 3 3 3 3 2 2 2 3 3 3 0 3 3 2 2 3 3 2 3 3 4 6 8 4 1 1 2 3 3 4 2 3 5 2 2 4 4 3 1 1 0 1 1 1 1 4 6 4 4 7 6 4 2 4 7 7 7 6 5 6 7 9 11 11 12 12 11
15 13 16 19 20 19 18 17 19 19 13 5 7 9 4 4 8 9 7 7 3 3 3 5 4 2 3 4 3 3 6 6 5 4 3 3 3 1 3 3 2 6 6 1 3 1 2 2 2 2 2 2 3 3 2 2 2 3 1 2 2 2 3 2 2 3 4 6 5 5 7 5 1 2 1 7 9 8 7 5 5 6 8 9 10 10 9 7
11 7 9 13 15 18 18 17 18 16 9 6 8 6 3 3 7 11 12 9 4 4 4 4 5 4 4 5 6 4 5 6 5 4 3 3 2 1 4 4 2 4 8 5 1 1 1 3 2 2 2 2 1 2 4 3 1 2 1 2 1 1 1 1 3 3 3 4 5 6 7 4 1 3 3 8 8 7 7 5 5 8 9 9 9 8 6 6
8 5 6 9 11 15 19 17 13 10 5 6 7 5 4 3 2 5 9 8 6 5 4 3 5 5 5 5 6 5 4 4 5 4 3 4 4 1 2 3 3 2 3 2 1 2 1 1 2 2 2 2 3 3 3 3 3 3 2 2 3 2 0 2 5 5 4 5 5 7 8 4 2 3 3 8 6 6 9 8 7 10 12 11 10 8 7 7
10 5 4 8 11 18 21 14 9 8 5 7 7 5 6 4 2 4 6 6 6 5 4 3 4 5 5 6 6 5 4 3 4 4 2 3 3 1 2 2 3 3 2 1 1 2 2 2 1 4 5 5 6 1 3 4 4 4 2 2 2 1 2 3 7 4 2 4 3 6 7 3 2 3 2 6 7 9 13 12 11 12 13 12 10 9 8 7
12 7 5 8 15 23 19 7 7 7 6 8 8 7 7 4 3 4 5 5 5 4 4 4 4 6 6 6 6 6 5 4 5 6 4 3 1 2 2 2 3 3 3 1 0 2 3 2 1 4 5 6 8 4 3 4 4 3 1 1 2 1 1 3 4 1 1 3 3 4 5 2 2 3 1 5 9 10 11 13 12 13 13 11 9 8 7 7
11 10 7 8 17 25 17 6 6 8 7 8 7 8 9 7 5 6 5 6 6 4 3 3 5 7 6 4 4 5 5 4 4 5 4 3 1 3 4 4 4 2 3 1 0 1 1 0 1 2 3 4 4 2 2 4 3 1 1 1 0 2 2 1 1 2 2 5 7 5 3 2 2 2 2 3 6 7 9 10 11 11 11 9 6 5 5 6
8 9 8 10 21 26 16 7 4 5 8 10 9 9 10 8 9 11 9 7 9 7 4 4 4 4 3 2 2 3 3 1 1 1 1 1 2 3 5 7 6 4 4 4 3 2 1 2 2 2 3 4 4 3 1 2 1 1 1 2 2 4 5 3 1 3 5 5 6 4 3 3 2 2 4 5 4 5 7 9 8 7 7 7 5 5 5 6
7 6 5 8 20 25 20 14 7 4 4 8 8 9 11 9 8 14 13 10 12 12 7 4 4 1 1 3 3 4 4 3 3 2 1 2 2 2 4 8 8 6 5 5 5 4 1 2 2 4 6 6 7 6 4 3 2 3 4 6 7 7 7 4 4 7 6 4 5 7 8 8 8 7 5 5 6 7 6 8 9 8 8 8 7 6 6 5
4 4 4 7 12 16 17 16 12 6 4 6 5 6 11 11 7 9 12 9 9 11 8 6 5 4 4 6 6 6 6 6 6 5 5 3 2 2 4 6 6 5 6 5 4 3 1 2 4 6 8 8 8 9 9 8 7 7 8 10 11 10 8 8 9 8 4 3 7 9 9 9 8 8 7 4 5 6 6 9 11 12 12 10 8 7 6 4
4 3 5 9 7 7 9 12 14 10 8 8 4 4 8 11 9 6 7 6 4 5 5 5 7 9 7 5 4 4 6 6 5 5 5 3 3 3 3 3 4 5 5 3 3 3 2 4 5 5 8 9 9 9 9 8 7 8 9 10 11 12 12 12 11 8 5 6 9 9 10 11 9 9 10 7 4 4 6 8 9 10 11 10 8 7 7 5
7 7 5 6 4 3 6 11 13 12 11 8 4 5 6 7 8 4 3 4 3 4 6 5 5 5 3 1 0 3 3 3 3 2 1 2 2 2 2 1 2 5 4 2 2 2 2 3 3 3 6 9 9 9 7 6 6 8 11 12 13 15 15 12 10 10 10 11 12 12 13 14 12 10 7 2 2 2 5 6 6 7 9 9 7 5 4 2
6 5 3 2 3 2 2 7 10 9 9 9 7 7 5 6 7 3 3 3 3 3 7 7 3 3 4 4 1 3 2 3 3 1 3 3 1 1 1 1 2 3 2 1 1 2 2 1 0 1 2 6 8 6 4 4 6 9 11 13 16 16 14 13 12 12 11 12 13 13 14 13 8 3 1 4 4 5 5 4 4 6 7 6 4 1 1 1
8 5 1 3 3 3 1 3 6 6 6 8 9 8 6 7 8 4 0 2 4 3 3 5 5 5 4 2 2 3 2 4 5 3 3 4 2 1 0 1 4 3 1 1 0 1 1 1 0 1 1 6 7 4 2 3 5 7 13 18 19 15 12 12 11 9 10 12 12 11 11 9 3 3 5 5 5 6 4 3 4 4 5 4 2 1 2 1
9 8 5 3 2 5 5 3 4 6 6 7 9 9 8 7 8 6 3 1 3 1 1 4 6 4 3 4 3 2 3 6 7 6 5 4 3 2 1 1 3 3 3 2 1 1 1 1 1 1 2 6 8 3 2 1 3 8 13 15 16 14 14 14 12 12 13 12 10 9 8 4 3 5 5 4 5 4 2 2 3 2 1 2 3 4 3 1
Wind_Direction
209 202 204 206 201 211 222 229 233 249 251 252 264 268 278 278 289 295 287 295 296 297 301 305 309 314 317 317 320 321 321 322 318 310 307 312 299 284 320 335 331 325 307 280 273 269 262 275 256 246 256 262 256 228 243 241 214 219 194 218 246 245 257 332 333 327 351 340 337 327 325 320 314 317 279 275 267 269 283 285 282 274 268 271 284 282 272 278
235 231 235 237 238 238 241 246 247 251 250 254 257 260 265 263 273 276 275 283 284 289 292 296 300 303 309 312 315 317 320 319 312 308 310 311 189 87 17 344 336 333 320 289 285 263 217 256 240 229 232 244 243 219 232 230 200 212 233 241 245 250 278 309 309 316 342 327 317 313 317 322 320 319 304 283 277 284 289 285 287 284 278 278 283 277 265 271
239 237 241 244 248 250 250 253 253 254 254 258 259 259 261 261 267 267 271 274 276 283 286 289 294 298 302 305 310 315 320 318 314 314 321 134 132 52 356 342 331 317 320 296 273 204 202 252 241 227 236 244 239 213 213 205 194 215 223 244 248 260 286 297 306 315 317 314 318 311 317 319 304 300 291 276 279 280 273 276 286 285 283 288 297 295 275 273
246 245 247 248 252 254 255 258 258 260 261 263 264 264 266 266 268 271 272 273 276 281 284 288 290 295 298 302 307 313 320 318 309 289 174 150 139 333 325 327 325 310 311 286 252 205 220 251 237 234 247 256 253 231 204 198 199 207 204 228 263 286 301 297 304 309 308 312 314 305 307 303 295 295 282 274 284 264 257 269 277 280 287 295 301 304 294 286
254 255 256 257 258 259 260 261 261 264 265 267 269 268 270 271 272 274 275 276 279 281 285 287 289 294 296 300 304 311 325 325 189 174 195 179 253 304 307 310 312 304 291 280 256 217 223 238 235 246 249 263 266 248 224 216 215 224 239 249 263 279 286 283 291 299 305 305 295 290 292 294 297 293 276 265 261 255 264 274 279 281 286 291 292 294 290 285
253 257 259 260 261 263 263 264 266 267 268 270 271 271 273 273 275 275 276 279 279 282 284 285 289 291 294 299 302 308 316 287 272 295 258 254 283 296 295 293 297 291 264 258 246 225 228 228 227 241 239 247 260 252 252 239 225 225 251 254 263 272 275 282 288 292 298 298 287 281 283 291 293 285 279 268 258 265 271 276 280 282 284 287 288 288 286 282
251 252 256 258 260 262 263 265 267 268 269 270 271 272 274 274 275 276 276 278 279 282 284 285 288 288 294 298 299 304 284 267 283 284 273 281 288 291 291 284 281 262 238 239 225 215 228 222 222 239 246 246 252 252 263 265 253 243 246 260 272 276 276 281 286 286 288 287 278 279 282 282 278 282 285 275 269 272 274 275 277 279 282 284 285 284 283 281
252 252 255 258 259 261 263 265 266 267 268 269 270 271 272 273 274 275 275 277 278 280 282 284 286 287 292 294 300 302 269 268 282 281 279 285 286 286 280 267 260 243 236 235 220 212 227 231 236 247 254 255 261 271 285 293 276 259 260 267 271 273 276 282 287 284 281 278 275 274 271 270 273 282 283 277 277 278 278 278 278 278 278 278 279 280 280 278
255 256 258 259 261 263 264 266 267 268 269 269 271 271 272 273 273 275 275 276 277 279 281 282 284 285 288 290 297 291 269 274 278 275 277 277 275 272 263 261 259 249 240 232 218 217 232 240 250 265 284 283 279 287 296 296 261 256 281 297 295 291 290 290 289 286 280 275 271 262 262 268 276 285 278 273 278 283 281 278 278 280 278 275 275 278 279 278
263 263 263 264 266 267 268 269 270 271 272 272 273 274 275 276 277 278 278 279 279 280 281 281 281 283 284 285 281 268 276 280 271 268 270 266 268 269 268 265 259 251 240 231 219 223 239 249 265 289 303 298 289 285 283 274 265 288 311 314 304 295 290 283 278 276 272 269 263 249 254 267 275 286 272 273 281 285 281 276 275 277 276 274 276 281 283 280
270 270 270 271 272 273 273 274 275 276 276 277 278 278 279 280 281 282 282 282 281 282 282 280 281 280 280 278 252 248 273 274 264 267 268 270 275 275 269 263 262 258 238 232 230 231 240 252 266 282 293 295 293 285 277 270 277 307 330 316 293 287 283 276 271 269 265 261 253 238 246 270 276 265 251 271 287 288 278 274 275 272 271 274 279 283 284 281
273 273 274 275 276 277 278 279 279 279 280 281 282 282 283 284 284 285 284 284 284 283 282 281 281 278 279 271 253 256 270 267 265 270 271 275 277 276 271 264 264 255 231 225 234 238 238 245 254 255 264 285 309 292 281 299 305 316 331 304 284 282 275 269 265 260 258 249 221 197 246 272 263 243 253 271 285 286 277 270 271 274 273 275 280 283 284 283
269 271 272 273 275 277 278 279 280 281 282 283 284 284 285 286 286 287 287 287 286 284 283 281 280 279 275 265 265 272 274 269 268 269 269 272 274 274 270 263 256 246 233 226 228 235 236 240 249 252 262 276 289 281 287 305 303 286 266 258 280 288 271 271 266 253 252 207 160 141 169 259 258 263 274 288 290 291 288 280 278 277 277 278 280 283 284 284
265 266 267 268 270 272 274 276 278 279 282 283 285 286 287 289 289 289 289 288 287 284 282 278 277 277 264 263 277 281 274 271 266 262 267 269 269 271 268 262 250 241 234 231 233 236 240 245 253 257 262 264 266 279 297 297 284 268 261 244 258 279 269 278 276 225 182 146 146 134 245 244 274 277 285 308 312 304 294 286 283 278 278 279 280 283 284 286
265 266 267 268 269 270 272 274 277 280 283 286 288 290 292 293 293 292 290 288 286 282 279 278 276 269 262 273 282 278 267 261 256 258 263 264 267 271 269 262 247 237 231 233 239 241 246 254 256 255 262 261 257 272 294 284 266 257 263 259 225 243 262 279 281 183 154 174 153 137 256 239 250 272 290 307 305 299 293 285 281 278 278 281 284 286 289 291
269 270 270 271 272 274 276 278 281 283 286 289 291 294 295 296 297 295 292 288 284 281 278 277 273 259 259 277 276 269 257 245 252 261 255 255 262 267 270 272 253 236 231 233 241 244 248 250 245 247 259 262 238 240 276 275 267 240 234 259 241 248 257 272 292 180 143 131 179 180 229 248 244 271 280 282 282 282 281 279 276 276 278 282 287 289 292 294
272 271 271 273 273 275 277 280 283 284 287 290 292 295 297 300 300 297 292 287 282 278 270 258 265 266 260 266 265 257 250 244 251 248 244 254 255 256 269 272 247 235 231 235 242 238 234 224 216 236 243 247 247 246 277 265 256 247 234 253 248 262 283 292 323 339 132 135 214 216 226 248 248 256 264 269 273 269 266 271 273 277 283 286 290 294 298 305
270 270 270 270 271 273 275 277 280 282 286 290 295 298 303 305 301 293 286 280 273 269 263 228 197 258 260 259 264 256 244 239 249 259 260 258 250 255 253 226 215 208 197 218 231 208 198 203 197 219 236 224 242 231 237 242 243 266 269 280 284 285 302 298 301 322 311 275 265 257 251 261 267 273 279 282 281 271 264 271 277 284 289 290 295 310 340 33
265 266 266 266 266 267 267 272 274 277 284 293 301 304 307 307 298 288 277 261 239 229 266 205 186 215 283 282 273 259 260 260 266 272 268 261 253 236 211 197 186 180 176 177 204 189 176 186 187 195 239 222 223 212 220 239 246 267 274 280 289 284 292 291 285 293 294 284 274 272 276 288 298 299 290 281 276 270 266 271 279 284 285 293 322 37 57 62
260 258 258 261 263 266 265 270 272 276 288 295 310 315 319 325 305 290 284 256 241 243 269 255 229 249 274 286 282 266 267 272 269 265 264 259 235 208 192 182 180 191 207 188 178 182 174 176 201 199 223 228 236 236 238 250 255 272 280 275 281 280 280 285 284 280 278 280 276 284 296 302 305 292 275 274 274 274 272 267 268 274 283 348 52 62 66 71
258 255 256 259 262 268 267 273 276 282 299 301 331 353 343 342 316 300 321 291 271 264 268 267 258 255 263 273 276 271 269 271 266 256 257 228 182 183 180 174 179 194 223 213 167 153 175 196 221 211 226 234 245 257 263 275 281 286 284 278 278 273 274 275 275 278 279 283 290 304 298 296 294 282 274 275 277 275 266 256 259 273 7 60 69 76 80 79
257 258 261 261 264 270 268 277 281 284 304 298 341 19 317 326 314 298 312 294 281 275 263 262 261 258 262 264 260 261 260 259 248 233 239 210 177 185 179 175 196 198 214 211 161 109 198 232 236 226 233 243 250 258 265 269 270 274 273 277 276 267 278 273 265 276 305 46 306 308 296 291 282 274 274 276 272 266 261 256 260 74 72 67 73 81 79 73
256 259 263 266 269 274 273 277 281 284 297 286 298 331 308 330 323 305 304 276 281 283 265 256 255 254 258 256 248 251 250 249 242 225 221 192 175 193 188 181 215 218 217 204 184 195 207 223 232 226 230 242 252 253 257 261 253 249 253 266 270 266 275 269 276 326 358 334 300 300 293 283 278 272 274 269 255 263 270 80 81 82 80 74 76 78 76 73
254 255 261 268 272 276 274 273 277 280 280 273 284 312 331 336 319 321 311 262 271 275 255 246 243 245 245 238 238 247 243 241 245 215 194 179 176 193 202 207 220 229 232 214 209 222 230 250 247 210 222 237 251 257 256 262 263 255 245 250 263 269 269 274 332 349 344 321 301 308 301 267 266 269 278 265 244 265 50 78 76 75 77 75 74 72 73 77
252 255 263 270 273 274 270 273 278 272 261 260 274 304 335 323 320 342 331 269 257 245 242 238 231 239 241 236 240 243 239 230 215 169 173 185 192 183 206 221 216 230 239 229 229 234 245 260 247 197 233 250 251 259 261 264 282 274 261 281 298 308 314 332 356 0 351 316 306 15 349 266 286 309 307 293 276 34 63 72 66 65 71 70 68 68 68 70
253 261 270 276 281 278 272 280 280 251 240 246 259 285 300 309 339 355 351 279 267 207 201 212 208 222 222 224 219 208 230 222 195 184 186 194 193 180 213 211 197 241 260 251 256 255 239 227 153 112 270 278 269 267 271 265 272 270 277 340 356 10 10 5 7 8 335 275 274 343 331 264 287 306 276 273 283 76 68 64 62 64 65 65 68 70 70 69
253 262 269 270 276 278 268 266 260 248 248 242 246 256 260 274 355 14 15 271 265 142 126 153 175 194 184 164 164 167 193 171 173 203 212 204 191 200 237 164 167 240 246 37 2 288 220 171 87 68 229 261 261 261 262 231 236 242 253 345 13 29 2 338 337 266 241 268 276 252 228 253 271 252 252 249 125 90 74 68 69 69 67 68 70 69 71 71
248 255 262 256 258 266 258 253 255 250 247 245 251 254 255 257 237 45 10 265 280 112 126 136 153 198 179 159 168 176 148 140 150 211 207 196 181 186 233 231 284 262 152 147 182 269 346 159 152 144 176 219 229 245 255 190 218 222 207 348 18 0 263 256 245 243 251 285 281 223 189 232 268 248 252 228 117 95 92 90 79 74 72 74 76 73 71 72
248 252 259 256 249 250 246 246 249 248 252 260 262 263 260 225 190 40 215 243 337 92 136 118 123 158 145 150 182 206 177 141 135 180 166 181 182 180 248 259 306 310 177 185 208 244 62 122 159 147 175 220 214 233 336 165 189 205 234 306 302 248 235 231 229 241 276 267 250 222 184 187 284 271 276 92 111 116 108 100 87 80 76 74 79 81 80 78
252 251 258 259 248 241 244 246 247 253 259 259 255 252 236 194 155 191 208 219 7 59 112 127 113 147 161 172 194 194 190 116 104 130 125 160 197 217 290 317 331 318 230 222 244 251 135 108 86 198 225 227 153 103 13 37 133 139 289 307 299 263 231 213 209 196 289 257 254 243 196 177 276 293 355 50 121 143 131 124 108 87 79 75 76 81 84 84
257 254 258 260 248 240 247 247 246 252 247 239 230 201 182 157 132 206 213 257 349 47 109 142 114 156 188 211 182 188 186 119 133 153 151 146 189 222 280 318 351 321 304 298 271 254 170 138 168 224 227 219 110 103 17 47 87 104 281 309 321 297 230 162 135 126 217 252 295 327 173 171 217 290 29 52 89 127 131 137 127 101 85 80 77 79 83 85
255 252 251 249 238 229 231 228 229 236 225 216 211 195 166 110 238 215 219 352 263 215 69 107 126 186 212 330 59 175 138 129 154 168 170 152 183 200 213 212 160 205 270 239 257 260 198 202 206 194 215 196 139 113 1 43 79 153 201 205 324 320 291 166 242 186 216 227 199 45 38 123 231 285 310 65 66 69 93 111 119 116 104 91 84 83 83 85
222 216 213 213 213 214 215 225 241 234 212 189 190 186 125 205 225 186 186 221 220 162 58 50 38 22 49 48 46 111 79 141 151 110 12 54 310 225 220 223 178 131 245 200 21 289 272 227 192 150 296 194 170 154 178 213 170 178 194 185 192 298 306 259 263 262 243 227 221 36 24 317 230 280 307 94 86 78 90 102 111 114 110 103 97 90 85 85
186 184 191 194 206 218 224 246 249 237 212 180 169 159 176 217 230 146 194 206 143 128 98 78 132 142 99 232 232 150 167 236 150 130 46 112 112 250 234 227 202 165 173 72 349 215 255 291 185 165 174 175 181 197 158 113 155 199 209 148 175 193 233 248 249 257 261 265 284 323 352 230 200 237 86 100 99 95 96 104 108 107 107 105 102 96 90 87
203 200 200 198 205 214 225 241 242 237 218 182 163 188 207 217 221 195 221 214 122 158 114 64 119 168 227 230 217 184 179 231 173 156 188 192 213 235 219 205 190 166 123 164 262 172 224 253 188 136 140 158 173 199 133 86 48 270 28 76 183 205 196 244 259 237 270 305 281 276 265 250 183 108 107 103 98 95 99 106 105 102 105 103 98 94 90 87
225 221 216 209 204 201 210 226 232 231 215 185 176 222 214 217 216 195 212 110 139 142 116 58 109 169 239 234 217 199 152 122 176 171 205 207 231 236 230 222 178 175 165 173 237 187 201 243 123 80 78 185 186 162 138 133 180 30 58 158 247 231 140 131 295 290 100 271 261 231 254 279 253 123 117 106 94 91 93 95 96 98 101 98 93 91 91 90
234 234 232 223 210 206 214 221 223 218 203 186 205 227 208 211 221 225 176 112 119 117 123 186 184 183 223 224 200 181 96 43 170 168 234 218 234 228 232 253 193 185 192 189 237 254 209 274 212 146 214 248 192 108 104 75 113 122 185 215 266 349 69 115 276 336 203 251 260 243 259 262 232 214 145 125 110 99 92 83 88 94 96 95 95 99 99 95
242 245 246 238 225 219 220 217 212 207 197 191 225 228 216 198 207 209 170 143 134 109 144 209 203 172 196 206 211 163 115 296 189 177 225 214 226 227 231 255 181 168 208 202 208 261 135 284 270 195 195 222 86 84 64 359 70 124 191 251 82 51 320 135 149 202 236 256 259 247 261 256 224 227 175 151 133 120 121 114 104 104 104 105 109 112 109 104
246 252 256 249 235 225 217 207 202 201 197 209 228 223 221 222 228 230 202 174 158 125 166 217 210 199 208 217 250 193 165 190 203 199 204 197 228 260 35 3 35 28 358 290 197 202 123 180 287 7 69 109 78 83 183 238 34 81 97 325 68 145 208 199 188 206 227 256 264 260 269 266 256 307 192 140 135 136 138 135 129 128 126 127 129 128 126 126
237 243 260 248 235 224 208 193 195 199 203 224 225 223 226 223 239 238 218 201 189 176 197 223 206 210 231 234 257 248 197 201 213 214 209 216 261 18 53 27 30 18 2 10 53 16 59 200 226 354 23 81 137 187 188 206 208 92 189 248 210 202 232 254 253 229 213 249 260 260 265 256 274 329 57 107 117 126 130 130 134 141 149 160 163 163 168 168
209 225 252 228 225 216 193 181 195 207 218 236 231 235 240 227 219 216 209 212 222 216 222 236 218 221 234 238 248 246 232 242 243 241 234 226 244 250 56 17 21 21 352 14 47 18 340 227 242 271 272 223 205 183 153 167 144 125 176 216 213 220 210 277 255 233 211 232 239 250 259 243 223 297 76 102 107 113 126 138 148 158 166 172 174 175 177 176
193 224 228 196 204 196 180 178 207 210 217 234 234 234 226 218 182 177 189 212 232 239 247 248 236 234 232 235 244 241 237 239 227 233 243 225 240 322 40 7 25 43 52 93 73 47 79 88 307 267 260 258 266 284 116 139 126 123 183 193 159 139 136 232 254 249 231 257 269 261 256 232 215 280 55 111 125 128 140 151 156 165 170 169 169 169 166 167
201 216 197 189 192 181 174 191 220 206 226 237 236 237 224 207 194 187 183 195 205 210 221 223 224 230 230 231 239 240 236 231 223 224 224 222 241 45 43 36 52 41 33 95 135 58 73 78 250 263 279 285 285 307 59 72 90 117 210 157 135 164 180 214 242 242 243 279 293 273 260 245 228 277 320 124 133 138 153 163 166 168 169 168 170 170 169 169
211 211 203 204 187 177 181 218 213 206 226 228 231 238 231 225 210 199 195 193 194 196 206 219 225 230 230 214 220 234 231 230 237 228 210 205 131 78 54 56 79 52 23 73 135 43 72 206 203 243 286 295 285 287 38 24 34 86 318 9 109 276 282 258 197 189 212 227 231 240 255 245 195 226 251 179 157 164 177 177 171 168 169 176 185 188 185 179
212 205 197 198 186 185 203 234 218 225 223 217 230 234 232 235 217 214 220 209 205 211 219 223 219 231 247 206 187 238 239 214 236 215 137 135 118 84 53 58 84 91 80 92 83 72 160 208 166 188 242 255 260 255 215 50 63 115 261 268 261 248 247 264 285 253 252 238 230 244 263 261 245 223 230 227 217 209 193 184 182 179 180 189 204 209 192 178
213 203 174 181 189 201 224 238 239 274 228 210 228 227 225 236 222 212 214 218 222 221 225 231 200 152 270 228 216 236 226 191 189 206 155 129 131 100 74 74 82 95 103 94 71 70 106 251 220 223 245 254 261 274 302 336 296 267 283 278 270 252 236 240 248 250 269 292 270 260 264 274 279 272 256 221 212 223 212 199 204 207 197 193 199 201 190 186
214 219 189 174 189 210 229 233 229 246 254 229 230 219 219 227 226 205 199 212 230 223 223 234 211 190 208 220 228 236 228 215 206 217 222 190 130 105 114 98 92 112 122 110 96 101 122 247 236 238 250 256 264 276 293 301 282 271 277 272 270 268 255 245 247 257 300 315 265 259 270 280 280 284 297 289 236 237 228 212 209 202 193 191 190 187 192 211
207 273 216 176 181 212 220 220 217 222 245 253 253 251 234 225 222 209 192 197 217 213 209 218 221 223 224 222 229 230 230 231 221 216 218 185 113 117 137 104 110 142 136 121 131 120 129 238 243 251 256 259 266 270 272 280 284 282 277 270 270 269 259 252 255 261 263 258 262 272 277 277 279 284 291 301 294 252 210 194 187 181 182 186 188 190 203 222
229 283 268 190 190 237 216 206 199 206 231 246 254 263 260 241 231 214 152 170 192 207 211 217 223 219 218 25 255 227 234 231 224 222 145 96 92 132 139 71 128 163 152 129 159 149 163 240 248 261 270 268 266 268 276 290 294 284 277 273 269 264 261 263 266 262 256 259 269 277 275 272 275 279 281 304 39 113 139 142 147 162 171 175 179 191 211 231
242 273 298 263 257 298 254 199 180 187 221 229 239 250 257 261 250 224 112 162 181 197 213 214 180 111 76 54 79 245 244 122 134 165 95 98 100 124 158 222 168 163 148 100 262 245 226 233 100 64 301 278 266 265 271 267 266 271 274 269 263 263 267 269 265 262 263 263 262 263 266 268 271 279 120 125 119 110 108 113 132 148 149 146 144 143 315 328
253 249 313 335 265 198 172 202 183 191 217 216 227 239 234 239 243 240 69 189 186 191 203 179 149 116 97 116 178 260 270 116 124 144 134 143 171 172 269 144 130 137 152 144 178 310 265 232 67 69 272 266 269 272 249 249 267 271 264 259 256 258 262 259 258 258 258 261 263 261 261 260 245 124 133 140 115 96 93 83 80 103 124 126 135 261 277 295
254 249 251 314 283 196 178 179 195 206 216 212 218 229 230 233 236 234 236 187 152 167 102 131 140 137 157 180 173 161 143 121 120 130 136 144 159 182 202 146 143 155 159 157 159 171 174 169 211 240 249 262 269 269 137 171 266 261 254 251 250 250 252 254 257 256 252 254 261 260 255 233 155 143 156 135 96 83 81 56 37 33 166 190 240 260 269 249